Tracking 30995 objects as of 5-Jul-2025
HD Live streaming from Space Station
objects crossing your sky now

ORBCOMM FM 15

Track ORBCOMM FM 15 now!
10-day predictions
ORBCOMM FM 15 is classified as:


NORAD ID: 25418
Int'l Code: 1998-046F
Perigee: 766.5 km
Apogee: 774.1 km
Inclination: 45.0 °
Period: 100.1 minutes
Semi major axis: 7141 km
RCS: 0.6025 m2 (medium)
Launch date: August 2, 1998
Source: ORBCOMM (ORB)
Launch site: Pegasus launched from Eastern Range Air Space (ERAS)
Your satellite tracking list
FENGYUN 2H AKM
Track 1 satellite(s)




NASA's NSSDC Master Catalog

Two Line Element Set (TLE):
1 25418U 98046F   25186.14644168  .00000819  00000-0  31110-3 0  9990
2 25418  44.9971  92.7511 0005260  20.5043 339.6016 14.38590442406837
Source of the keplerian elements: AFSPC